Regional Weather Roundup
Issued by NWS

Home | Current Version | Previous Version | Graphics & Text | Print | Product List | Glossary On
Versions: 1 2 3 4 5 6 7 8 9 10 11 12 13 14 15 16 17 18 19 20 21 22 23 24 25 26 27 28 29 30 31 32 33 34 35 36 37 38 39 40 41 42 43 44 45 46 47 48 49 50
000
ASUS43 KLSX 010907
RWRMO

WEATHER SUMMARY FOR MISSOURI
NATIONAL WEATHER SERVICE SPRINGFIELD MO
300 AM CST SUN FEB 01 2015

NOTE: "FAIR" INDICATES FEW OR NO CLOUDS BELOW 12,000 FEET WITH NO
       SIGNIFICANT WEATHER AND/OR OBSTRUCTIONS TO VISIBILITY.
       CURRENT SKY AND/OR WEATHER CONDITIONS ARE NOT AVAILABLE FOR
       CHILLICOTHE AND FARMINGTON.

MOZ001>031-035>038-043-044-053-054-011000-
...NORTHERN AND WESTERN MISSOURI...

CITY           SKY/WX    TMP DP  RH WIND       PRES   REMARKS
KANSAS CTY INT LGT SNOW  33  33 100 S8        29.76F FOG     WCI  26
KANSAS C DTWN  FLURRIES  34  31  88 CALM      29.78F
LEE`S SUMMIT   LGT SNOW  33  32  96 S6        29.77F FOG     WCI  28
ST JOSEPH      LGT SNOW  32  32 100 CALM      29.78F FOG
CHILLICOTHE      N/A     33  32  96 SE7       29.81F WCI  27
KIRKSVILLE     SNOW      33  33 100 SE15      29.84F VSB 1/2 WCI  23

$$
MOZ066>068-077>081-088>096-101>105-011000-
...SOUTHWEST MISSOURI...

CITY           SKY/WX    TMP DP  RH WIND       PRES   REMARKS
SPRINGFIELD    LGT RAIN  37  35  92 S9        29.79F
JOPLIN         LGT RAIN  40  39  97 MISG      29.79F FOG

$$
MOZ032>034-039>042-045>050-055>058-069>072-011000-
...CENTRAL MISSOURI...

CITY           SKY/WX    TMP DP  RH WIND       PRES   REMARKS
COLUMBIA       LGT SNOW  33  33 100 E10       29.85F FOG     WCI  25
JEFFERSON CITY LGT RAIN  34  32  92 E7        29.87F FOG     WCI  28
ROLLA          RAIN      35  33  92 CALM      29.82F FOG
SEDALIA        LGT SNOW  33  32  96 SE9       29.82F FOG     WCI  25
WHITEMAN AFB   LGT SNOW  32  32 100 SE7       29.80F FOG     WCI  26
WARRENSBURG    LGT SNOW  32  32 100 SE7       29.80F WCI  26
OSAGE BEACH    CLOUDY    36  32  87 NE3       29.84F

$$
MOZ051-052-059>065-011000-
...EAST CENTRAL MISSOURI...

CITY           SKY/WX    TMP DP  RH WIND       PRES   REMARKS
ST LOUIS INTL  LGT RAIN  37  30  75 E7        29.92F FOG
SPIRIT OF STL  LGT RAIN  34  32  92 E3        29.89F FOG
ST CHARLES     LGT RAIN  34  31  88 E10       29.92F FOG     WCI  26

$$
MOZ072>076-082>087-097>100-106>115-011000-
...SOUTH CENTRAL AND SOUTHEAST MISSOURI...

CITY           SKY/WX    TMP DP  RH WIND       PRES   REMARKS
CAPE GIRARDEAU CLOUDY    42  26  53 SE15      29.93F
FARMINGTON     CLOUDY    39  25  56 S14       29.90F
POPLAR BLUFF   CLOUDY    39  30  70 CALM      29.92F
WEST PLAINS    RAIN      37  30  75 S12       29.85F WCI  29

$$



USA.gov is the U.S. government's official web portal to all federal, state and local government web resources and services.